Regional Weather Roundup
Issued by NWS

Home | Current Version | Previous Version | Graphics & Text | Print | Product List | Glossary On
Versions: 1 2 3 4 5 6 7 8 9 10 11 12 13 14 15 16 17 18 19 20 21 22 23 24 25 26 27 28
000
ASUS45 KCYS 221110
RWRWY

WYOMING REGIONAL WEATHER ROUNDUP
NATIONAL WEATHER SERVICE CHEYENNE WY
500 AM MDT FRI JUL 22 2016

NOTE:  "FAIR" INDICATES FEW OR NO CLOUDS BELOW 12,000 FEET
WITH NO SIGNIFICANT WEATHER AND/OR OBSTRUCTIONS TO VISIBILITY.

WYZ001-221200-
YELLOWSTONE NATIONAL PARK

CITY           SKY/WX    TMP DP  RH WIND       PRES   REMARKS
LK YELLOWSTONE   N/A     45  37  73 NW3       30.40S
W YELLOWSTONE  NOT AVBL

$$
WYZ002>013-054>058-071-098>099-221200-
NORTHERN WYOMING

CITY           SKY/WX    TMP DP  RH WIND       PRES   REMARKS
JACKSON        FAIR      54  41  62 NE5       30.31R
CODY           FAIR      70  34  26 SW7       30.12S
GREYBULL       FAIR      70  40  33 CALM      30.05R
WORLAND        FAIR      75  45  34 S12       30.07R
SHERIDAN       FAIR      62  46  55 CALM      30.05S
BUFFALO        FAIR      68  37  32 VRB3      30.13F
GILLETTE       FAIR      72  43  35 CALM      30.09S
HULETT         FAIR      72  36  26 S8        30.11F
NEWCASTLE      FAIR      79  46  31 E7        30.13S

$$
WYZ014>020-022>026-101>103-221200-
CENTRAL WYOMING

CITY           SKY/WX    TMP DP  RH WIND       PRES   REMARKS
BIG PINEY      FAIR      52  40  63 CALM      30.37S
PINEDALE       FAIR      50  43  76 N6        30.38S
DUBOIS         FAIR      57  36  44 W14       30.34R HAZE
LANDER         FAIR      71  37  28 W8        30.18R
RIVERTON       FAIR      68  45  43 S9        30.19S
CASPER         FAIR      63  43  48 SW8       30.21S
DOUGLAS          N/A    N/A N/A N/A MISG      30.19S

$$
WYZ021-027>030-104>119-221200-
SOUTHERN WYOMING

CITY           SKY/WX    TMP DP  RH WIND       PRES   REMARKS
EVANSTON       FAIR      67  43  41 VRB3      30.35F
KEMMERER         N/A     59  36  41 W3        30.38S
FORT BRIDGER   FAIR      69  42  37 SW12G18   30.37S
ROCK SPRINGS   FAIR      57  43  59 NW7       30.34R
DIXON          FAIR      55  47  75 E6        30.38S
RAWLINS        FAIR      50  40  68 N5        30.35S
SARATOGA       FAIR      55  46  71 SE12G17   30.39S
LARAMIE        FAIR      53  44  71 W6        30.38S
CHEYENNE       FAIR      70  46  42 W8        30.27S
TORRINGTON     FAIR      69  58  67 W5        30.12R
PINE BLUFFS    FAIR      66  55  68 CALM      30.20S

$$




USA.gov is the U.S. government's official web portal to all federal, state and local government web resources and services.